SCP
1 2 3 2 2 2 2 2 2 2 2 2 2 1 1 1 1 1 1 1 1 1 1 1 1 1 1 0 0 0 0 0 0 0 0 0 0 0 0 0 0 0 0
1 2 3 2 2 2 2 2 2 2 2 2 2 2 2 2 2 1 1 1 1 1 1 1 1 1 1 1 0 0 0 0 0 0 0 0 0 0 0 0 0 0 0
2 2 3 2 2 2 2 3 3 3 3 2 2 2 2 2 2 2 2 1 1 1 1 1 1 1 1 1 1 1 1 0 0 0 0 0 0 0 0 0 0 0 1
2 3 3 2 2 2 2 3 3 3 3 3 3 2 2 2 2 2 2 2 2 1 1 1 1 1 1 1 1 1 1 1 1 0 0 0 0 0 0 0 0 1 1
3 4 4 3 2 2 2 3 3 3 3 3 3 3 2 2 2 2 1 2 2 2 1 1 1 1 1 1 1 1 1 1 1 1 0 0 0 0 0 0 0 1 1
3 4 5 4 2 2 2 3 4 4 4 3 3 3 3 2 2 2 2 2 2 2 1 1 1 1 1 1 1 1 1 1 1 1 0 0 0 0 0 0 1 1 1
2 4 5 4 3 2 2 3 3 4 4 3 3 2 2 2 2 2 2 2 2 2 1 1 1 1 1 1 1 1 1 1 1 1 1 1 0 0 0 0 1 1 1
2 3 4 4 3 2 2 2 3 4 4 4 3 2 2 2 2 2 2 2 2 2 1 1 1 1 1 1 1 1 1 1 1 1 1 1 1 1 0 0 0 1 1
2 3 4 4 3 2 2 2 3 4 4 4 3 3 3 3 3 3 2 2 2 2 1 1 1 1 1 1 1 1 2 1 1 1 1 1 1 1 1 0 0 1 1
3 3 4 4 3 2 2 2 2 3 4 3 3 3 3 3 2 2 2 2 2 1 1 1 1 1 1 1 1 2 2 1 1 1 1 1 1 1 1 1 0 0 1
3 3 3 3 3 3 2 2 3 3 3 3 3 2 2 2 2 2 1 2 2 1 1 1 1 1 1 1 1 2 2 2 1 1 1 1 1 1 1 1 0 0 0
3 3 3 3 3 3 3 3 3 3 3 3 2 2 2 2 2 1 1 1 1 1 1 1 1 1 1 1 1 2 2 2 1 1 1 1 1 1 1 1 1 0 0
2 2 3 3 4 4 4 5 4 4 3 3 2 2 2 2 2 2 2 1 1 1 1 1 1 1 1 1 1 2 2 2 2 1 1 1 1 1 1 1 1 0 0
2 2 2 3 4 4 4 5 4 4 3 2 2 2 2 2 2 2 2 2 1 1 1 1 1 1 1 1 1 2 2 2 2 1 1 1 1 1 1 1 1 1 1
2 2 2 3 3 4 4 4 4 3 3 2 2 2 2 2 2 2 2 2 1 1 1 1 1 1 1 1 1 1 2 2 2 2 1 1 1 1 1 1 1 1 1
1 1 1 2 3 4 4 4 3 3 2 2 2 2 2 2 2 2 2 1 1 1 1 1 1 1 1 1 1 1 1 2 2 2 1 1 1 1 1 1 1 1 1
1 1 1 2 3 3 4 4 3 3 2 2 2 1 2 2 2 2 2 1 1 1 1 0 1 1 1 1 1 1 1 1 2 2 1 1 1 1 1 1 1 1 1
1 1 1 1 3 3 3 4 3 3 2 2 1 1 1 1 2 2 2 1 1 1 0 0 0 0 1 1 1 1 1 1 1 1 1 1 1 1 1 1 1 1 1
1 1 1 1 3 4 3 3 3 3 3 2 2 1 1 1 1 2 2 1 1 1 0 0 1 1 1 1 1 1 1 1 1 1 1 1 1 1 1 1 1 1 1
1 1 1 1 3 4 4 4 3 3 3 2 2 2 1 1 1 1 2 2 1 1 1 1 1 1 1 1 1 1 1 1 1 0 0 0 1 1 1 1 1 1 1
2 1 1 1 3 3 4 4 3 3 3 2 2 2 1 1 1 1 1 1 1 1 1 1 1 1 1 1 1 1 1 1 1 0 0 0 0 1 1 1 1 1 1
2 2 2 2 2 2 3 3 3 3 2 2 2 1 1 1 1 1 1 1 1 1 1 1 1 2 1 1 1 1 1 1 0 0 0 0 0 1 1 1 1 1 1
2 2 2 2 2 2 2 2 3 2 2 1 1 1 1 1 1 1 1 1 1 1 1 1 1 2 1 1 1 1 1 1 0 0 0 0 0 1 1 0 0 0 1
1 2 3 3 3 1 1 1 2 2 1 1 1 1 1 1 1 1 1 1 1 1 1 1 1 2 1 1 1 1 0 0 0 0 0 0 0 0 0 0 0 0 0
0 1 2 3 3 1 1 1 1 1 1 1 1 1 1 1 1 1 1 1 1 1 1 1 1 1 1 1 1 0 0 0 0 0 0 0 0 0 0 0 0 0 0
0 1 2 3 2 1 1 1 1 1 1 1 1 1 1 1 1 1 1 1 1 1 1 1 1 1 1 1 0 0 0 0 0 0 0 0 0 0 0 0 0 0 0
Wind_Speed
3 4 6 5 6 7 8 8 9 9 9 10 10 10 10 10 9 9 9 9 9 9 9 10 10 10 10 10 10 10 10 10 10 10 10 10 10 10 10 8 6 9 11
3 4 6 5 6 7 8 8 9 9 9 9 10 10 10 10 9 9 9 8 8 9 9 9 10 10 10 10 10 10 10 10 10 9 7 8 9 9 9 8 7 8 9
3 4 6 5 6 7 8 8 9 9 9 9 9 9 9 9 9 10 9 8 8 8 9 9 10 9 9 9 10 9 10 9 9 6 3 6 9 9 8 8 8 8 8
3 4 5 5 6 7 8 9 9 10 10 9 9 9 9 9 9 9 9 8 8 8 8 9 9 9 9 9 9 9 9 9 7 2 4 6 7 8 7 8 8 8 8
3 3 5 5 6 7 8 9 9 10 10 9 9 9 9 9 9 9 8 8 8 8 8 8 8 8 8 9 8 9 8 7 4 2 5 5 6 7 7 8 7 7 7
3 3 5 5 6 7 8 9 9 10 10 10 9 9 9 9 9 9 8 8 7 8 8 8 7 8 8 8 8 8 8 5 4 4 4 4 5 6 6 6 6 6 6
3 3 5 4 5 6 7 8 9 9 9 9 9 9 9 9 9 8 8 7 7 8 8 8 7 7 7 8 8 8 7 2 2 4 4 4 5 4 5 5 5 5 5
3 4 5 5 5 5 7 8 8 9 9 9 9 9 8 8 8 8 8 7 7 8 8 7 7 7 7 7 8 7 6 1 3 4 4 4 5 3 4 4 4 4 4
3 4 4 5 5 6 6 7 8 8 8 9 9 8 8 8 8 8 8 7 7 7 7 7 7 6 7 7 7 7 5 1 2 3 3 3 4 3 3 3 3 3 3
3 3 4 5 5 5 6 7 8 8 8 8 8 8 8 8 8 8 7 7 7 7 7 7 7 7 6 6 6 6 4 3 3 3 2 4 3 2 2 3 3 2 3
3 3 4 5 5 5 5 6 7 8 8 7 8 8 6 6 7 6 7 7 7 8 7 7 7 6 5 6 5 4 4 2 3 2 2 4 2 1 2 2 2 2 2
5 4 4 4 5 5 4 5 4 5 6 5 5 6 4 5 4 5 8 7 7 7 7 7 6 5 2 3 4 4 2 2 2 2 3 4 1 0 1 1 1 1 1
5 5 4 4 5 5 4 4 3 3 4 5 5 5 4 4 4 4 4 4 5 5 4 4 4 2 2 2 2 2 2 1 1 2 3 4 1 1 1 1 0 0 0
5 6 5 5 5 5 5 4 3 3 3 4 4 4 4 3 3 3 3 3 3 2 2 2 1 2 2 2 2 2 3 1 1 1 4 4 2 1 1 1 0 0 0
5 6 5 5 6 5 5 4 4 3 4 4 4 4 4 3 3 3 3 2 2 2 2 2 2 2 2 2 2 2 3 2 2 2 3 5 4 3 3 3 2 1 2
5 5 5 5 5 5 5 4 4 3 3 4 4 5 4 3 3 3 3 3 2 2 2 2 2 2 2 2 3 3 2 2 1 2 2 4 5 5 5 4 4 3 3
5 5 5 5 5 5 5 5 4 3 3 4 4 4 4 3 3 3 3 3 2 2 2 2 2 2 2 2 3 2 2 2 2 2 1 1 3 5 6 5 5 5 5
5 5 5 5 6 5 5 4 3 3 3 3 3 3 4 4 3 3 3 2 2 2 2 2 1 2 2 2 2 2 2 2 2 2 2 2 2 2 4 6 6 6 6
6 6 6 6 7 6 5 4 4 3 3 3 3 3 3 4 3 3 2 2 2 2 2 2 1 1 2 2 2 2 1 2 3 2 3 3 3 2 2 4 5 6 6
6 6 6 6 7 6 5 4 3 4 3 3 2 3 4 3 3 3 2 3 2 2 2 2 2 2 2 2 2 2 2 2 2 2 2 3 2 2 2 2 1 3 5
6 6 7 6 7 6 5 4 4 4 3 3 2 3 3 3 3 3 2 2 2 2 2 3 2 3 2 1 1 2 2 2 2 2 1 1 2 2 2 2 2 2 1
7 7 6 7 7 7 5 4 3 4 3 3 2 3 3 3 3 2 3 2 2 2 3 3 2 2 2 1 1 1 1 2 2 1 1 1 1 2 2 2 2 2 2
7 7 6 7 7 7 7 5 4 4 3 3 3 3 2 2 3 3 3 2 2 2 2 2 3 2 2 1 0 1 1 1 1 1 1 0 1 1 2 2 2 2 2
7 7 7 6 7 7 8 7 8 6 5 4 4 3 3 3 3 3 3 2 2 2 2 2 2 2 3 2 1 0 1 1 1 1 2 1 1 2 2 2 2 2 2
7 7 7 7 7 7 8 8 7 6 4 4 4 5 4 3 3 3 3 2 2 2 2 2 2 2 2 2 2 1 1 1 2 2 2 1 1 1 2 3 2 2 2
6 7 7 8 8 8 8 8 8 8 7 7 6 5 4 3 2 3 3 3 3 2 2 2 2 2 2 2 2 2 1 1 1 2 3 3 2 2 2 2 2 2 2
Wind_Direction
148 156 151 171 165 159 152 147 141 137 133 129 127 126 127 127 126 123 124 123 121 119 116 113 110 110 106 102 101 98 95 91 89 87 83 82 83 85 87 86 91 90 86
147 161 148 169 168 163 154 148 141 137 134 131 130 128 127 128 128 125 122 120 119 120 117 114 111 108 106 103 101 100 98 95 93 90 93 99 87 83 86 78 62 80 88
137 153 157 158 163 163 155 150 144 142 137 134 133 131 128 125 126 124 121 118 117 116 116 116 112 109 108 107 105 102 100 98 95 95 137 111 99 87 86 85 84 90 91
137 154 159 146 161 159 154 153 147 144 140 136 134 130 127 125 125 126 123 119 116 116 116 113 113 111 109 107 106 105 105 103 101 143 115 95 99 91 88 88 88 90 91
143 151 140 148 156 156 153 154 151 147 142 140 136 132 128 125 124 125 123 118 114 112 115 116 114 114 112 111 111 109 107 107 119 141 95 94 94 92 89 88 86 86 88
147 145 134 144 151 153 151 152 154 147 144 141 137 133 130 126 122 119 117 115 113 112 112 114 114 117 115 116 116 114 110 118 175 113 105 100 94 95 95 92 87 87 90
148 136 132 124 142 147 151 148 146 147 144 141 139 135 131 124 120 117 112 113 116 113 111 108 112 120 119 117 117 114 111 117 136 115 109 102 86 88 98 98 93 89 88
149 138 131 113 108 129 147 147 144 141 138 137 137 134 130 124 119 115 112 112 115 115 112 106 102 114 119 117 115 114 111 141 130 115 112 102 74 85 97 101 99 90 88
155 146 142 144 133 116 126 140 140 135 132 131 128 122 116 114 113 111 109 112 114 114 111 107 102 110 120 121 118 113 109 101 139 116 116 95 71 82 101 103 104 94 89
161 155 150 147 142 141 140 130 131 125 122 122 116 109 105 110 112 108 108 102 104 101 101 103 102 103 113 118 118 115 125 198 137 127 120 85 67 85 104 103 108 105 89
166 158 149 146 143 145 141 132 135 125 118 123 119 112 125 134 129 122 102 97 98 97 98 99 99 96 105 118 116 126 175 177 134 120 101 68 72 90 109 116 106 102 98
179 170 162 154 149 149 144 141 148 144 136 138 135 137 139 130 118 112 100 94 96 95 97 95 97 113 140 140 138 176 180 164 144 129 89 66 67 135 125 126 130 106 99
180 175 167 165 157 146 151 144 146 149 139 133 130 132 132 125 123 122 126 121 117 120 112 114 131 122 116 124 153 163 157 153 142 118 90 72 51 56 95 110 146 191 178
184 174 168 163 160 155 154 145 152 152 145 137 134 134 132 129 131 129 127 125 128 124 117 120 111 107 113 118 148 146 144 152 141 110 81 68 46 35 50 90 127 184 164
190 179 168 168 155 152 151 149 150 153 150 142 138 137 131 129 133 130 126 124 120 115 123 109 106 101 98 95 93 120 126 131 132 132 103 78 50 42 43 45 55 88 100
192 180 171 170 156 150 150 148 147 150 149 143 140 138 137 131 129 131 127 123 117 113 108 115 111 108 99 85 80 81 115 115 109 104 89 99 71 43 35 37 38 44 61
195 181 171 166 156 153 147 149 144 149 151 141 135 138 135 133 134 134 129 125 115 108 108 110 110 108 103 99 99 88 77 83 97 100 87 77 96 72 48 36 35 36 34
190 176 170 166 157 153 142 146 143 144 144 136 132 134 135 135 140 140 130 120 118 119 122 120 121 118 104 99 99 93 88 92 75 69 83 84 72 77 75 48 34 30 25
189 176 171 168 158 152 138 133 134 131 131 130 135 135 136 137 145 139 130 123 132 134 131 126 117 124 109 90 86 87 82 93 93 76 70 65 59 47 52 76 54 37 27
185 180 170 165 156 145 136 133 130 127 130 129 134 132 135 137 140 133 135 134 135 140 137 136 119 109 108 102 100 86 76 85 89 84 75 66 53 45 35 46 75 61 36
175 178 172 166 159 154 149 151 157 152 145 136 133 133 141 144 144 144 142 142 146 147 140 138 130 122 108 115 139 118 108 102 99 92 75 69 55 36 26 24 22 8 37
179 178 172 173 168 167 160 156 160 147 144 137 141 138 142 148 150 158 155 153 152 149 146 144 144 137 115 127 209 185 187 174 145 90 93 44 15 14 10 9 8 1 354
180 178 175 180 175 170 161 147 140 138 138 147 157 154 153 156 159 163 161 158 159 163 161 165 164 161 153 153 284 270 239 228 157 168 167 170 345 340 341 355 355 348 346
182 179 176 179 176 169 166 168 171 170 167 171 164 159 157 162 163 159 166 162 164 164 162 168 176 184 178 182 165 306 332 348 248 208 180 192 301 314 320 327 333 339 338
177 175 176 175 177 176 176 176 176 173 165 155 155 158 159 161 164 166 172 167 165 161 161 159 167 182 192 197 193 187 183 227 264 259 249 233 256 280 300 308 313 321 331
174 173 174 174 175 176 176 174 176 171 166 162 166 165 163 161 167 175 184 180 177 171 173 174 181 187 194 193 204 206 203 209 231 256 262 265 272 277 286 287 286 293 300